ARIANE 40+ R/B

Last updated on Wed Jul 02 2025 00:02:14 GMT+0000 (Coordinated Universal Time)

1 23561U 95021B 25182.14606257 .00000179 00000+0 71505-4 0 9991 2 23561 98.4829 251.5532 0007095 165.6677 223.7379 14.39541949583054
UTC large
Height (km)
Speed (km/s)
/
Latitude / Longitude
Inclination (degrees)
Orbital Period (minutes)
Azimuth
Elevation
Range (km)
Doppler Factor

Next 0 passes for location: London (51.5072 / 0.1276)

Sorry there are no passes over London.